Location: Helsinki
(60.1699°N, 24.9384°E)
Time: 10:04:04
(UTC+03:00)

Vanguard 2 Rocket - Pass Details

Date: 28 September 2023
Orbit: 553 x 3298 km, 32.9° (Epoch: 07 October)

Event Time Altitude Azimuth Distance (km) Brightness Sun altitude
Rises 10:20:33 0° 183° (S) 6,383 11.8 19.6°
Reaches altitude 10° 10:28:16 10° 161° (SSE) 5,868 12.4 20.3°
Maximum altitude 10:35:23 13° 138° (SE) 5,856 13.7 20.9°
Drops below altitude 10° 10:42:53 10° 115° (ESE) 6,287 12.5 21.5°
Sets 10:51:49 0° 95° (E) 7,221 12.1 22.2°
